Weather History for KPKD - July, 2014

Change the Weather History Date:

Sunday, July 27, 2014

  Actual Average Record
Temperature  
Mean Temperature 65 °F -  
Max Temperature 72 °F 80 °F 100 °F (1988)
Min Temperature 59 °F 55 °F 43 °F (2013)
Growing Degree Days 15 (Base 50)    
Moisture  
Dew Point 58 °F    
Average Humidity 82    
Maximum Humidity 93    
Minimum Humidity 63    
Precipitation  
Precipitation 0.09 in - - ()
Sea Level Pressure  
Sea Level Pressure 29.96 in    
Wind  
Wind Speed 13 mph (NNW)    
Max Wind Speed 18 mph    
Max Gust Speed 26 mph    
Visibility 10 miles    
Events Rain    
Averages and records for this station are not official NWS values.
T = Trace of Precipitation, MM = Missing Value Source: NWS Daily Summary

Daily Weather History Graph

Daily Weather History Graph

Search for Another Location

Airport or City:

Trip Planner

Search our weather history database for the weather conditions in past years. The results will help you decide how hot, cold, wet, or windy it might be!

Date:

Astronomy

Jul. 27, 2014 Rise Set
Actual Time 5:53 AM CDT 8:58 PM CDT
Civil Twilight 5:17 AM CDT 9:34 PM CDT
Nautical Twilight 4:31 AM CDT 10:21 PM CDT
Astronomical Twilight 3:33 AM CDT 11:18 PM CDT
Moon 6:48 AM CDT (7/27) 8:59 PM CDT (7/27)
Length of Visible Light 16h 17m
Length of Day
15h 04m
New Moon, 1% of the Moon is Illuminated
Jul 27
New Moon
Aug 3
First Quarter
Aug 10
Full
Aug 17
Last Quarter
Aug 25
New

Hourly Weather History & Observations

Time (CDT) Temp. Dew Point Humidity Pressure Visibility Wind Dir Wind Speed Gust Speed Precip Events Conditions
12:53 AM 63.0 °F 55.9 °F 78% 29.75 in 10.0 mi West 15.0 mph - N/A   Partly Cloudy
1:53 AM 61.0 °F 55.9 °F 83% 29.75 in 10.0 mi WNW 11.5 mph - N/A   Scattered Clouds
2:53 AM 61.0 °F 55.9 °F 83% 29.76 in 10.0 mi WNW 13.8 mph 23.0 mph N/A   Mostly Cloudy
3:50 AM 60.8 °F 55.4 °F 82% 29.78 in 10.0 mi WNW 13.8 mph - N/A   Mostly Cloudy
3:53 AM 60.1 °F 55.9 °F 86% 29.77 in 10.0 mi WNW 11.5 mph - N/A   Mostly Cloudy
4:34 AM 59.0 °F 57.0 °F 93% 29.80 in 10.0 mi NW 12.7 mph - 0.00 in   Overcast
4:53 AM 60.1 °F 55.9 °F 86% 29.79 in 10.0 mi NW 15.0 mph - 0.00 in   Overcast
5:04 AM 59.0 °F 55.9 °F 90% 29.80 in 10.0 mi NW 11.5 mph - N/A   Overcast
5:53 AM 59.0 °F 55.9 °F 90% 29.81 in 10.0 mi NW 12.7 mph - N/A   Scattered Clouds
6:03 AM 60.8 °F 55.4 °F 82% 29.83 in 10.0 mi NW 12.7 mph - N/A   Mostly Cloudy
6:53 AM 61.0 °F 57.0 °F 87% 29.84 in 10.0 mi NNW 13.8 mph - N/A   Overcast
7:07 AM 61.0 °F 57.0 °F 87% 29.85 in 10.0 mi NW 15.0 mph - N/A   Overcast
7:19 AM 62.1 °F 57.0 °F 84% 29.86 in 10.0 mi NW 15.0 mph - N/A   Overcast
7:53 AM 62.1 °F 57.0 °F 84% 29.87 in 10.0 mi NNW 15.0 mph - N/A   Overcast
8:07 AM 63.0 °F 57.0 °F 81% 29.89 in 10.0 mi NW 10.4 mph - N/A   Overcast
8:46 AM 61.0 °F 57.9 °F 90% 29.91 in 10.0 mi NNW 12.7 mph - 0.00 in Rain Light Rain
8:53 AM 61.0 °F 57.9 °F 90% 29.91 in 10.0 mi NNW 11.5 mph - 0.00 in Rain Light Rain
9:30 AM 64.9 °F 57.9 °F 78% 29.92 in 10.0 mi NNW 16.1 mph 24.2 mph 0.00 in   Overcast
9:53 AM 66.0 °F 57.9 °F 75% 29.93 in 10.0 mi NNW 18.4 mph 25.3 mph 0.00 in   Overcast
10:29 AM 66.9 °F 57.9 °F 73% 29.95 in 10.0 mi NNW 15.0 mph 25.3 mph N/A   Mostly Cloudy
10:53 AM 66.0 °F 57.9 °F 75% 29.97 in 10.0 mi NNW 16.1 mph 26.5 mph 0.00 in Rain Light Rain
11:05 AM 66.0 °F 57.9 °F 75% 29.97 in 10.0 mi North 18.4 mph - 0.00 in Rain Light Rain
11:14 AM 64.9 °F 57.9 °F 78% 29.98 in 10.0 mi North 16.1 mph - 0.00 in Rain Light Rain
11:53 AM 64.4 °F 59.0 °F 83% 30.00 in 10.0 mi North 12.7 mph 21.9 mph N/A   Overcast
12:45 PM 66.9 °F 57.0 °F 70% 30.02 in 10.0 mi North 11.5 mph - 0.00 in   Overcast
12:53 PM 68.0 °F 57.9 °F 70% 30.02 in 10.0 mi North 13.8 mph - 0.00 in   Overcast
1:53 PM 71.1 °F 57.9 °F 63% 30.03 in 10.0 mi North 18.4 mph 23.0 mph N/A   Mostly Cloudy
2:53 PM 66.0 °F 60.1 °F 81% 30.06 in 3.0 mi North 11.5 mph - 0.03 in Rain Rain
3:53 PM 66.9 °F 59.0 °F 76% 30.07 in 10.0 mi North 13.8 mph - 0.04 in   Overcast
4:53 PM 71.1 °F 61.0 °F 70% 30.08 in 10.0 mi NW 15.0 mph - N/A   Mostly Cloudy
5:13 PM 66.0 °F 57.9 °F 75% 30.09 in 10.0 mi North 10.4 mph 21.9 mph 0.00 in Rain Light Rain
5:53 PM 64.0 °F 60.1 °F 87% 30.11 in 10.0 mi NW 12.7 mph - 0.00 in   Mostly Cloudy
6:53 PM 66.9 °F 55.9 °F 68% 30.12 in 10.0 mi North 12.7 mph - N/A   Overcast
7:32 PM 63.0 °F 59.0 °F 87% 30.13 in 10.0 mi NNE 5.8 mph - 0.02 in   Overcast
7:53 PM 63.0 °F 59.0 °F 87% 30.14 in 10.0 mi North 5.8 mph - 0.02 in   Overcast
8:09 PM 63.0 °F 60.1 °F 90% 30.14 in 10.0 mi North 9.2 mph - N/A   Overcast
8:53 PM 63.0 °F 57.9 °F 84% 30.16 in 10.0 mi North 6.9 mph - N/A   Overcast
9:53 PM 62.1 °F 59.0 °F 90% 30.17 in 10.0 mi NNW 8.1 mph - N/A   Overcast
10:53 PM 62.1 °F 57.9 °F 86% 30.18 in 10.0 mi NNW 9.2 mph - N/A   Overcast
11:53 PM 61.0 °F 57.0 °F 87% 30.19 in 10.0 mi NNW 8.1 mph - N/A   Overcast